Home > Weather > Lisbon > Past weeks

Flag for Portugal Weather for the Past 2 Weeks in Lisbon, Portugal

Now
57 °F

Scattered clouds.


Feels Like: 55 °F
Forecast: 56 / 59 °F
Wind: 8 mph from West

Location: Lisbon Portela Airport

Current Time: May 6, 2016 at 8:36:42 PM

Latest Report: May 6, 2016 at 8:00 PM


Visibility: N/A

Pressure: 29.83 "Hg

Humidity: 77%

Dew Point: 50 °F

Location of LisbonLocation

Historic Weather in Lisbon — Graph

°F

Lisbon Temperature Yesterday

Maximum temperature yesterday: 63 °F (at 12:00 AM)
Minimum temperature yesterday: 57 °F (at 11:30 PM)
Average temperature yesterday: 61 °F

High & Low Weather Summary for the Past Weeks

 TemperatureHumidityPressure
High86 °F (May 3, 4:30 PM)100% (Apr 22, 6:30 AM)30.24 "Hg (Apr 22, 6:30 AM)
Low52 °F (Apr 24, 5:30 AM)19% (May 3, 4:30 PM)29.77 "Hg (May 6, 3:00 AM)
Average62 °F68%30.01 "Hg
* Reported Apr 21 7:00 PM — May 6 7:30 PM, Lisbon, Weather by CustomWeather, © 2016

Note: Actual official high and low records may vary slightly from our data, if they occured in-between our weather recording intervals... More about our weather records

Advertising

Lisbon Weather History for the Previous 24 Hours

Scroll right to see more
 ConditionsComfort  
Time TempWeatherWind HumidityBarometerVisibility
7:30 PM
Fri, May 6
57 °FPartly sunny.8 mph77%29.83 "HgN/A
7:00 PM57 °FPartly sunny.12 mph72%29.83 "HgN/A
6:30 PM57 °FScattered clouds.9 mph72%29.83 "HgN/A
6:00 PM59 °FScattered clouds.12 mph68%29.83 "HgN/A
5:30 PM57 °FBroken clouds.10 mph77%29.83 "HgN/A
5:00 PM57 °FPartly sunny.12 mph77%29.83 "HgN/A
4:30 PM57 °FPartly sunny.10 mph82%29.83 "HgN/A
4:00 PM59 °FBroken clouds.9 mph77%29.83 "HgN/A
3:30 PM57 °FBroken clouds.6 mph88%29.83 "HgN/A
3:00 PM57 °FPartly sunny.7 mph88%29.83 "HgN/A
2:30 PM57 °FSprinkles. Partly sunny.8 mph88%29.83 "HgN/A
2:00 PM55 °FSprinkles. Broken clouds.8 mph94%29.83 "Hg5 mi
1:30 PM57 °FSprinkles. Partly sunny.8 mph88%29.83 "Hg4 mi
1:00 PM57 °FScattered showers. Partly sunny.12 mph88%29.83 "HgN/A
12:30 PM57 °FDrizzle. Broken clouds.12 mph88%29.83 "Hg5 mi
12:00 PM59 °FPartly sunny.12 mph82%29.83 "HgN/A
11:30 AM59 °FPartly sunny.12 mph82%29.83 "HgN/A
11:00 AM59 °FPartly sunny.12 mph82%29.80 "HgN/A
10:30 AM59 °FBroken clouds.12 mph82%29.80 "HgN/A
10:00 AM59 °FPartly sunny.10 mph82%29.80 "HgN/A
9:30 AM57 °FBroken clouds.9 mph88%29.80 "HgN/A
9:00 AM57 °FBroken clouds.8 mph88%29.80 "HgN/A
8:30 AM57 °FPartly sunny.9 mph88%29.77 "HgN/A
8:00 AM57 °FPartly sunny.9 mph88%29.77 "HgN/A
7:30 AM57 °FPassing clouds.8 mph88%29.77 "Hg5 mi
7:00 AM57 °FPartly cloudy.9 mph88%29.77 "Hg5 mi
6:30 AM57 °FPartly cloudy.9 mph88%29.77 "Hg6 mi
6:00 AM57 °FPassing clouds.9 mph88%29.77 "HgN/A
5:30 AM57 °FPassing clouds.9 mph88%29.77 "HgN/A
5:00 AM57 °FPartly cloudy.10 mph88%29.77 "Hg6 mi
4:30 AM57 °FPartly cloudy.9 mph94%29.77 "Hg6 mi
4:00 AM57 °FPassing clouds.9 mph94%29.77 "Hg6 mi
3:30 AM57 °FPassing clouds.9 mph94%29.77 "Hg6 mi
3:00 AM57 °FPassing clouds.8 mph100%29.77 "Hg5 mi
2:30 AM57 °FPassing clouds.6 mph100%29.80 "Hg4 mi
2:00 AM57 °FPartly cloudy.7 mph100%29.80 "Hg4 mi
1:30 AM57 °FPassing clouds.7 mph94%29.80 "Hg4 mi
1:00 AM57 °FLight rain. Partly cloudy.5 mph94%29.83 "Hg6 mi
12:30 AM57 °FLight rain. Passing clouds.3 mph94%29.83 "Hg6 mi
12:00 AM57 °FPassing clouds.3 mph100%29.83 "Hg5 mi
11:30 PM
Thu, May 5
57 °FPassing clouds.5 mph100%29.83 "Hg5 mi
11:00 PM59 °FPartly cloudy.5 mph94%29.83 "Hg5 mi
10:30 PM59 °FPassing clouds.7 mph94%29.83 "Hg6 mi
10:00 PM59 °FPassing clouds.7 mph94%29.83 "HgN/A
9:30 PM59 °FDrizzle. Broken clouds.No wind94%29.83 "HgN/A
9:00 PM59 °FLight rain. Broken clouds.No wind94%29.83 "HgN/A
8:30 PM61 °FDrizzle. Broken clouds.3 mph88%29.83 "HgN/A
8:00 PM61 °FPartly sunny.5 mph88%29.83 "HgN/A
Weather by CustomWeather, © 2016

See weather overviewHow to use our weather pages